Regional Weather Roundup
Issued by NWS New Orleans/Baton Rouge, LA

Home | Current Version | Previous Version | Text Only | Print | Product List | Glossary On
Versions: 1 2 3 4 5 6 7 8 9 10 11 12 13 14 15 16 17 18 19 20 21 22 23 24 25 26 27 28 29 30 31 32 33 34 35 36 37 38 39 40 41 42 43 44 45 46 47 48 49 50
000
ASUS44 KLIX 210611
RWRLIX
NEW ORLEANS REGIONAL WEATHER ROUNDUP
NATIONAL WEATHER SERVICE NEW ORLEANS LA
100 AM CDT TUE APR 21 2015

NOTE: "FAIR" INDICATES FEW OR NO CLOUDS BELOW 12,000 FEET WITH NO
      SIGNIFICANT WEATHER AND/OR OBSTRUCTIONS TO VISIBILITY.
      SKY/WX - SKY CONDITION AND SIGNIFICANT WEATHER.
      TMP - AIR TEMPERATURE.     DP    - DEWPOINT TEMPERATURE.
      RH  - RELATIVE HUMIDITY.   PRES  - PRESSURE.
      HI  - HEAT INDEX.          WCI   - WIND CHILL INDEX.

*  THESE STATIONS ARE NOT NWS OR FAA STATIONS AND ARE NOT UNDER
   NWS QUALITY CONTROL.

LAZ038-040-048-061>063-065>067-069-210700-
SOUTHEAST LOUISIANA

CITY           SKY/WX    TMP DP  RH WIND       PRES   REMARKS
N.O. AUDUBON     N/A     67  55  64 MISG        N/A
6HR MIN TEMP:  66; 6HR MAX TEMP:  73;

N.O. INTL ARPT MOCLDY    66  49  54 N5        29.97S
6HR MIN TEMP:  66; 6HR MAX TEMP:  72;

N.O. LAKEFRONT   N/A     71  48  43 N14       29.97S
6HR MIN TEMP:  70; 6HR MAX TEMP:  75;

SLIDELL          N/A     60  56  86 CALM      29.97R
6HR MIN TEMP:  60; 6HR MAX TEMP:  71;

BATON ROUGE      N/A     58  55  90 CALM      29.99S
6HR MIN TEMP:  58; 6HR MAX TEMP:  68;

BOOTHVILLE       N/A     68  57  68 N6        29.97S
6HR MIN TEMP:  68; 6HR MAX TEMP:  76;

BELLE CHASSE     N/A     60  55  83 N3        29.97R
6HR MIN TEMP:  60; 6HR MAX TEMP:  73;

BOGALUSA*        N/A     57  53  86 CALM      29.99S
6HR MIN TEMP:  57; 6HR MAX TEMP:  71;

GALLIANO*        N/A     64  59  83 CALM      29.97F
6HR MIN TEMP:  64; 6HR MAX TEMP:  74;

NEW ROADS*       N/A     59  56  90 CALM      30.00S
6HR MIN TEMP:  59; 6HR MAX TEMP:  68;

GONZALES*        N/A     58  58 100 CALM      29.98S
6HR MIN TEMP:  58; 6HR MAX TEMP:  69;

HAMMOND*         N/A     59  54  82 CALM      30.00S
HOUMA*           N/A     61  55  81 N6        29.97S
6HR MIN TEMP:  61; 6HR MAX TEMP:  72;

PORT FOURCHON* NOT AVBL

$$

MSZ070-080>082-210700-
SOUTHERN MISSISSIPPI

CITY           SKY/WX    TMP DP  RH WIND       PRES   REMARKS
MCCOMB           N/A     54  51  90 NW3       29.99S
6HR MIN TEMP:  53; 6HR MAX TEMP:  67;

GULFPORT         N/A     62  50  64 N5        29.96S
6HR MIN TEMP:  61; 6HR MAX TEMP:  73;

BILOXI           N/A     62  52  71 NE2       29.95F
6HR MIN TEMP:  62; 6HR MAX TEMP:  74;

PASCAGOULA       N/A     57  56  96 CALM      29.97R
6HR MIN TEMP:  57; 6HR MAX TEMP:  73;


$$

COASTAL OBSERVATIONS
LAKE AND NEARSHORE STATIONS

STATION/POSITION TIME  TEMP    WIND        PRES    WAVE
                       AIR SEA DIR/SP/G            HT/PER
                 (UTC) (F)     (DEG/KT/KT) (MB)    (FT/S)
PASCAGOULA       0500   64     360/  6/  8 1014.1
WAVELAND YACHT   0500   66 73  360/  9/ 12 1014.5
GRAND ISLE       0500   71 77   20/ 10/ 12 1014.4
SOUTHWEST PASS   0500   70 64   10/  7/  9 1014.9
NEW CANAL        0500   70      10/ 11/ 13 1015.1
SHELL BEACH      0500   70 75  350/ 14/ 16 1014.0

OFFSHORE STATIONS

STATION/POSITION TIME  TEMP    WIND        PRES    WAVE
                       AIR SEA DIR/SP/G            HT/PER
                 (UTC) (F)     (DEG/KT/KT) (MB)    (FT/S)
64 S DAUPHIN ISL 0550   73 74  350/ 14/ 16 1014.0    3/ 6

$$



USA.gov is the U.S. government's official web portal to all federal, state and local government web resources and services.